Location: Corralito
(10.2667°N, 66.9500°W)
Time: 23:11:57
(UTC+00:00)

Cosmos 2251 Rocket - Visible Passes

Search period start: 04 December 2023 00:00
Search period end: 14 December 2023 00:00
Orbit: 763 x 790 km, 74.0° (Epoch: 04 December)

Date Brightness Start Highest point End Pass type
(mag) Time Alt. Az. Time Alt. Az. Time Alt. Az.
04 Dec 3.7 23:01:54 10° N 23:07:05 51° ENE 23:12:16 10° SSE visible
05 Dec 4.4 22:28:11 10° NNE 22:32:41 27° ENE 22:37:10 10° SE visible
06 Dec 6.1 00:10:58 10° WNW 00:14:36 19° W 00:18:16 10° SW visible
06 Dec 5.2 23:35:29 10° NW 23:40:18 35° W 23:45:08 10° SSW visible
07 Dec 4.0 23:00:41 10° NNW 23:05:58 66° WSW 23:11:17 10° S visible
08 Dec 6.8 10:01:15 10° SE 10:03:38 13° E 10:06:00 10° ENE visible
08 Dec 3.6 22:26:18 10° N 22:31:37 66° ENE 22:36:55 10° SSE visible
09 Dec 6.6 23:36:18 10° WNW 23:39:06 14° W 23:41:55 10° SW visible
10 Dec 5.9 23:00:21 10° NW 23:04:48 27° W 23:09:16 10° SSW visible
11 Dec 5.6 09:57:47 10° SSE 10:02:24 32° E 10:07:02 10° NE visible
11 Dec 4.6 22:25:18 10° NNW 22:30:29 51° WSW 22:35:38 10° S visible
12 Dec 6.5 09:24:45 10° SE 09:28:06 17° E 09:31:27 10° ENE visible
13 Dec 7.1 23:02:20 10° W 23:03:35 11° W 23:04:50 10° WSW visible
